This is the latest recevied weather packets stored in our database for station/object N0HEQ. If no packets are shown the sender has not sent any weather packets the latest 10 day(s).
| Time | Temp. | Humidity | Pressure | Rain* | Wind** | Luminosity | Snow |
|---|---|---|---|---|---|---|---|
| 1777840441 | 23.89° C | 14% | 1015.7 hPa | 0 mm | - | 689 W/m² | - |
| 1777840138 | 25° C | 13% | 1016 hPa | 0 mm | - | 635 W/m² | - |
| 1777839837 | 25.56° C | 14% | 1016.1 hPa | 0 mm | - | 739 W/m² | - |
| 1777839535 | 24.44° C | 13% | 1016.1 hPa | 0 mm | - | 810 W/m² | - |
| 1777839231 | 23.89° C | 16% | 1016.1 hPa | 0 mm | - | 794 W/m² | - |
| 1777838929 | 25.56° C | 14% | 1016.1 hPa | 0 mm | - | 817 W/m² | - |
| 1777838624 | 24.44° C | 13% | 1016.5 hPa | 0 mm | - | 802 W/m² | - |
| 1777838322 | 25° C | 14% | 1016.5 hPa | 0 mm | - | 869 W/m² | - |
| 1777838018 | 23.89° C | 15% | 1016.6 hPa | 0 mm | - | 974 W/m² | - |
| 1777837716 | 23.89° C | 15% | 1016.6 hPa | 0 mm | - | 278 W/m² | - |
| 1777837411 | 23.89° C | 14% | 1016.5 hPa | 0 mm | - | 804 W/m² | - |
| 1777837108 | 25° C | 14% | 1016.6 hPa | 0 mm | - | 525 W/m² | - |
| 1777836804 | 25° C | 13% | 1016.7 hPa | 0 mm | - | 843 W/m² | - |
| 1777836500 | 23.89° C | 14% | 1016.6 hPa | 0 mm | - | 909 W/m² | - |
| 1777836196 | 22.78° C | 14% | 1016.9 hPa | 0 mm | - | 918 W/m² | - |
| 1777835892 | 23.89° C | 14% | 1016.7 hPa | 0 mm | - | 720 W/m² | - |
| 1777835589 | 22.78° C | 14% | 1017.2 hPa | 0 mm | - | 514 W/m² | - |
| 1777835286 | 22.22° C | 15% | 1017.2 hPa | 0 mm | - | 665 W/m² | - |
| 1777834983 | 23.89° C | 16% | 1017.3 hPa | 0 mm | - | 729 W/m² | - |
| 1777834680 | 22.78° C | 15% | 1017.2 hPa | 0 mm | - | 557 W/m² | - |
| 1777834375 | 22.78° C | 16% | 1017.4 hPa | 0 mm | - | 415 W/m² | - |
| 1777834070 | 22.78° C | 16% | 1017.5 hPa | 0 mm | - | 680 W/m² | - |
| 1777833767 | 22.78° C | 16% | 1017.6 hPa | 0 mm | - | 634 W/m² | - |
| 1777833463 | 23.33° C | 14% | 1017.6 hPa | 0 mm | - | 649 W/m² | - |
| 1777833161 | 23.33° C | 17% | 1017.9 hPa | 0 mm | - | 503 W/m² | - |
* Rain latest hour (hover to see other rain measurements)
** Current wind speed in m/s (hover to see current wind gust speed)